Find Starlink 32852

NORAD ID: 62824 Int'l Des: 2025-018 Owner: SPXS Country: US Constellation: starlink operational
LEOCIRCULAR

当前视图

正在加载3D地球...

About Starlink 32852

Starlink 32852 (NORAD 62824) is a starlink constellation satellite (v2 mini) launched Jan 24, 2025 by SPXS of US. It operates in LEO, CIRCULAR orbit with a mass of 730.00 kg.

关于 Starlink 32852

正在加载描述...

即将过境

Passes for default location (London). Set your location on the main map for personalized predictions.

高度历史

Loading altitude history...

两行轨道根数

1 62824U 25018U 26169.38211750 .00010339 00000-0 36081-3 0 9996
2 62824 53.1567 201.9744 0001186 78.6577 281.4557 15.30192674 78593
Epoch: Jun 18, 2026 • Age: 28 hours

当前状态

高度 492.5 km
速度 7.62 km/s
星下点 -48.53°S, 35.04°E
发射日期 Jan 24, 2025
运行时间 1.3 years
类型 internet

技术详情

分类 Payload
质量 730.00 kg
干质量 700.00 kg
总质量 730.00 kg
长度 0.30 m
直径 4.10 m
跨度 29.00 m
形状 Box + pan
制造商 SPXS
平台类型 Starlink V2M
阶段状态 In Orbit
所有者/国家 SPXS/US

Most Searched